327  
AXUS43 KGID 230402  
MISGRI  
 
GID CWA HOURLY WEATHER ROUNDUP  
NATIONAL WEATHER SERVICE HASTINGS NE  
1100 PM CDT SAT JUL 22 2017  
 
NOTE: "FAIR" INDICATES FEW OR NO CLOUDS BELOW 12,000 FEET WITH NO  
SIGNIFICANT WEATHER AND/OR OBSTRUCTIONS TO VISIBILITY.  
   
..SOUTH CENTRAL NEBRASKA
 
 
 
CITY SKY/WX TMP DP RH WIND PRES REMARKS  
GRAND ISLAND PTCLDY 70 70 100 S7 30.02R  
HASTINGS PTCLDY 76 70 82 NW3 30.01R  
KEARNEY PTCLDY 71 69 93 E6 30.03R  
ORD CLEAR 70 65 84 CALM 29.99R  
YORK CLOUDY 75 73 94 S9 29.99R  
AURORA CLOUDY 74 72 93 S5 30.00R  
LEXINGTON CLEAR 69 66 89 CALM 30.04R  
HOLDREGE PTCLDY 72 69 91 E6 30.02S  
HEBRON CLOUDY 78 67 68 SW5 29.96F  
   
..NEBRASKA PANHANDLE
 
 
 
CITY SKY/WX TMP DP RH WIND PRES REMARKS  
CHADRON CLEAR 74 52 46 S7 30.07R  
ALLIANCE CLEAR 66 44 45 S8 30.11R  
SCOTTSBLUFF CLEAR 71 55 56 SE5 30.11R  
SIDNEY CLEAR 66 48 52 S5 30.16R  
   
..WESTERN AND NORTH CENTRAL NEBRASKA
 
 
 
CITY SKY/WX TMP DP RH WIND PRES REMARKS  
VALENTINE CLEAR 73 49 42 NW3 30.01R  
AINSWORTH CLEAR 71 58 63 S8 30.01S  
ONEILL CLEAR 71 63 77 S7 29.99R  
BROKEN BOW CLEAR 66 62 87 CALM 30.03R  
IMPERIAL CLEAR 69 54 58 S6 30.09R  
NORTH PLATTE CLEAR 67 58 72 CALM 30.06R  
MCCOOK PTCLDY 70 60 70 N6 30.03S  
   
..EASTERN NEBRASKA
 
 
 
CITY SKY/WX TMP DP RH WIND PRES REMARKS  
NORFOLK CLEAR 70 67 90 S10 29.97R  
SO SIOUX CITY CLEAR 69 69 100 CALM 29.92S  
TEKAMAH PTCLDY 70 68 93 W6 29.91F  
COLUMBUS PTCLDY 67 65 93 N8 29.96F  
ALBION CLEAR 65 64 94 CALM 29.99S  
OMAHA EPPLEY MOCLDY 77 72 84 N9 29.90F  
MILLARD CLOUDY 80 73 80 CALM 29.93R  
LINCOLN CLOUDY 80 71 74 SW7 29.95R  
NEBRASKA CITY CLOUDY 79 79 100 S3 29.91F  
BEATRICE CLOUDY 80 75 86 CALM 29.96R  
FALLS CITY CLOUDY 81 77 88 W6 29.93R  
   
..NORTHERN KANSAS
 
 
 
CITY SKY/WX TMP DP RH WIND PRES REMARKS  
GOODLAND CLEAR 68 54 60 CALM 30.10R  
HILL CITY PTCLDY 74 70 87 CALM 30.00R  
NORTON CLEAR 73 66 78 N7 30.00  
PHILLIPSBURG CLEAR 77 66 69 E6 29.96F  
SMITH CENTER CLEAR 75 72 88 NE8 29.97F  
HAYS CLOUDY 73 68 84 NE12 29.93F  
RUSSELL CLOUDY 72 66 81 NE12 29.92S  
CONCORDIA LGT RAIN 71 70 96 S8 29.97R  
SALINA CLOUDY 75 69 81 E14 29.93F  
TOPEKA TSTM 74 73 97 W14G20 29.98R  
 
CLICK HERE TO GO TO PREVIOUS BULLETINS.

The Nexlab NE Page
The Nexlab KS Page Main Text Page